Hayward, CA

2:34 AM PDT on October 18, 2017 (GMT -0700)
Hayward Executive

Weather History for KHWD - November, 2013

Change the Weather History Date:

Sunday, November 3, 2013

  Actual Average Record
Temperature  
Mean Temperature 54 °F 59 °F  
Max Temperature 63 °F 68 °F 77 °F (2010)
Min Temperature 44 °F 50 °F 44 °F (2013)
Degree Days  
Heating Degree Days 12    
Month to date heating degree days 10  
Since 1 July heating degree days 218  
Cooling Degree Days 0    
Month to date cooling degree days 0  
Year to date cooling degree days 250  
Growing Degree Days 4 (Base 50)    
Moisture  
Dew Point 41 °F    
Average Humidity 63    
Maximum Humidity 93    
Minimum Humidity 32    
Precipitation  
Precipitation 0.00 in - 0.19 in (2008)
Month to date precipitation 0.00  
Year to date precipitation 1.71  
Since 1 July precipitation 0.22  
Sea Level Pressure  
Sea Level Pressure 30.01 in    
Wind  
Wind Speed 5 mph (NNW)    
Max Wind Speed 16 mph    
Max Gust Speed 18 mph    
Visibility 10 miles    
Events      
T = Trace of Precipitation, MM = Missing Value Source: NWS Daily Summary

Daily Weather History Graph

Daily Weather History Graph

Search for Another Location

Airport or City:

Trip Planner

Search our weather history database for the weather conditions in past years. The results will help you decide how hot, cold, wet, or windy it might be!

Date:

Astronomy

Nov. 03, 2013 Rise Set
Actual Time 6:36 AM PST 5:07 PM PST
Civil Twilight 6:08 AM PST 5:34 PM PST
Nautical Twilight 5:37 AM PST 6:05 PM PST
Astronomical Twilight 5:07 AM PST 6:36 PM PST
Moon 6:45 AM PST (11/3) 5:27 PM PST (11/3)
Length of Visible Light 11h 25m
Length of Day
10h 31m
New Moon, 0% of the Moon is Illuminated
Nov 3
New Moon
Nov 9
First Quarter
Nov 17
Full
Nov 25
Last Quarter
Dec 2
New

Hourly Weather History & Observations

Time (PST) Temp. Windchill Dew Point Humidity Pressure Visibility Wind Dir Wind Speed Gust Speed Precip Events Conditions
12:54 AM 50.0 °F - 46.9 °F 89% 30.00 in 10.0 mi ENE 4.6 mph - N/A   Unknown
1:54 AM 48.9 °F - 46.0 °F 90% 30.01 in 10.0 mi ENE 3.5 mph - N/A   Unknown
1:54 AM 48.0 °F - 44.1 °F 86% 30.01 in 10.0 mi Calm Calm - N/A   Unknown
2:54 AM 46.9 °F - 33.1 °F 59% 30.01 in 10.0 mi ENE 3.5 mph - N/A   Unknown
3:54 AM 46.0 °F 44.8 °F 43.0 °F 89% 30.02 in 10.0 mi ENE 3.5 mph - N/A   Unknown
4:54 AM 46.0 °F - 42.1 °F 86% 30.04 in 10.0 mi Calm Calm - N/A   Unknown
5:54 AM 44.1 °F 42.5 °F 39.9 °F 85% 30.04 in 10.0 mi ENE 3.5 mph - N/A   Unknown
6:54 AM 44.1 °F - 39.9 °F 85% 30.05 in 10.0 mi Calm Calm - N/A   Unknown
7:54 AM 50.0 °F - 42.1 °F 74% 30.07 in 10.0 mi Calm Calm - N/A   Unknown
8:54 AM 54.0 °F - 39.0 °F 57% 30.08 in 10.0 mi NW 4.6 mph - N/A   Unknown
9:54 AM 57.9 °F - 35.1 °F 42% 30.08 in 10.0 mi NW 4.6 mph - N/A   Unknown
10:54 AM 60.1 °F - 37.0 °F 42% 30.09 in 10.0 mi WNW 10.4 mph - N/A   Unknown
11:54 AM 60.1 °F - 34.0 °F 38% 30.06 in 10.0 mi West 10.4 mph - N/A   Unknown
12:54 PM 61.0 °F - 34.0 °F 36% 30.01 in 10.0 mi WNW 11.5 mph - N/A   Unknown
1:54 PM 63.0 °F - 32.0 °F 31% 29.99 in 10.0 mi WNW 10.4 mph - N/A   Unknown
2:54 PM 61.0 °F - 41.0 °F 48% 29.99 in 10.0 mi West 11.5 mph - N/A   Unknown
3:54 PM 59.0 °F - 42.1 °F 53% 29.98 in 10.0 mi WNW 10.4 mph - N/A   Unknown
4:54 PM 55.9 °F - 45.0 °F 67% 29.98 in 10.0 mi West 6.9 mph - N/A   Clear
5:54 PM 55.9 °F - 46.0 °F 69% 29.98 in 10.0 mi WNW 6.9 mph - N/A   Unknown
6:54 PM 55.0 °F - 46.0 °F 72% 29.96 in 10.0 mi Calm Calm - N/A   Unknown
7:54 PM 53.1 °F - 46.0 °F 77% 29.96 in 10.0 mi NNW 3.5 mph - N/A   Unknown
8:54 PM 52.0 °F - 43.0 °F 71% 29.96 in 10.0 mi ENE 3.5 mph - N/A   Unknown
9:54 PM 51.1 °F - 39.9 °F 66% 29.98 in 10.0 mi Calm Calm - N/A   Unknown
10:54 PM 48.9 °F - 37.0 °F 64% 29.97 in 10.0 mi ENE 3.5 mph - N/A   Unknown